[[{"header":{"parameterUnit":"m.s-1","parameterCategory":2,"la1":30.2991,"la2":30.254,"lo1":-89.0895,"lo2":-89.0444,"dy":0.0017,"dx":0.0017,"nx":28,"ny":28,"refTime":"2024-03-29T21:00:00:Z","depth":"0","parameterNumber":2,"parameterNumberName":"U-component_of_CURRENTS"},"data":[0,0,0,0,0,0,0,0,0,0,0,0,0,0,0,0,0,0,0,0,0,0,0,0,0,0,0,0,0,0,0,0,0,0,0,0,0,0,0,0,0,0,0,0,0,0,0,0,0,0,0,0,0,0,0,0,0,0,0.2136,0.2135,0,0.2062,0.2062,0.2061,0.2047,0.2047,0.2047,0.2047,0.1925,0.1922,0.1918,0,0,0,0,0,0,0,0,0,0,0,0,0,0.222,0.2219,0.2136,0.2135,0.2133,0.2062,0.2062,0.2061,0.2047,0.2047,0.2047,0.2047,0.1926,0.1922,0.1918,0,0,0,0,0,0,0,0,0,0,0,0,0,0.2173,0.2219,0.2136,0.2114,0.2111,0.2063,0.2062,0.2061,0.2047,0.2047,0.2047,0.2047,0.1927,0.1922,0.1917,0.188,0,0,0.1902,0.1899,0,0,0,0,0,0,0,0,0.2175,0.217,0.2119,0.2116,0.2112,0.206,0.2046,0.1997,0.2047,0.2076,0.2047,0.2048,0.1962,0.1955,0.1947,0.1875,0.1869,0.1901,0.1898,0.1896,0.1894,0,0,0,0,0,0,0,0.2179,0.2173,0.2111,0.2117,0.2113,0.2093,0.2087,0.2037,0.2021,0.2073,0.2071,0.2056,0.1961,0.1952,0.1944,0.1868,0.1901,0.1897,0.1894,0.1892,0.182,0.1822,0,0,0,0,0,0,0.2181,0.2176,0.2113,0.2108,0.214,0.2091,0.2085,0.208,0.2023,0.2013,0.2056,0.2055,0.1961,0.195,0.1939,0.1912,0.1896,0.1891,0.1888,0.1819,0.1821,0.1822,0,0,0,0,0,0,0.2183,0.2177,0.2116,0.2137,0.2127,0.2089,0.2084,0.2078,0.2072,0.2009,0.2,0.2054,0.1961,0.1946,0.1897,0.1907,0.1889,0.1884,0.1818,0.182,0.1821,0.1845,0,0,0,0,0,0,0.2186,0.2178,0.2176,0.2137,0.2126,0.2093,0.2083,0.2077,0.2059,0.2059,0.2004,0.1993,0.196,0.1905,0.1892,0.1899,0.188,0.1816,0.1819,0.1821,0.1843,0.1848,0.1852,0,0,0,0,0,0.219,0.2178,0.2177,0.2168,0.2124,0.2092,0.2085,0.2062,0.2059,0.2057,0.2019,0.1995,0.1912,0.1901,0.1885,0.1891,0.1815,0.1818,0.1821,0.1841,0.1847,0.1851,0,0,0,0,0,0,0.2198,0.2173,0.2172,0.215,0.2128,0.2088,0.2072,0.2064,0.2035,0.2029,0.1984,0.197,0.1942,0.1914,0.1904,0.1885,0.1869,0.1869,0.1891,0.1895,0.19,0.1918,0.1876,0,0,0,0,0,0.2203,0.2196,0.2167,0.2149,0.2138,0.2111,0.2094,0.2081,0.2046,0.2035,0.2001,0.1969,0.1941,0.1915,0.1888,0.1852,0.1858,0.1858,0.1863,0.1866,0.1875,0.1905,0.1912,0.1831,0.1831,0.1831,0,0,0.2192,0.2183,0.2173,0.2152,0.213,0.2105,0.2102,0.2076,0.2059,0.2022,0.199,0.1976,0.1938,0.1913,0.1899,0.1886,0.1891,0.187,0.1872,0.1879,0.1908,0.1916,0.1923,0.1833,0.1832,0.1832,0,0,0.2158,0.2168,0.2145,0.2135,0.2109,0.21,0.2096,0.2067,0.2062,0.2026,0.2013,0.2012,0.1945,0.1942,0.1925,0.1938,0.1918,0.1929,0.1949,0.1978,0.1985,0.1991,0.1998,0.2005,0.1924,0.1924,0.1924,0,0.214,0.2118,0.213,0.2107,0.2091,0.2099,0.2066,0.2063,0.2026,0.2021,0.2019,0.1988,0.1967,0.1951,0.1968,0.1947,0.1949,0.1925,0.1983,0.1989,0.1995,0.2001,0.2008,0.1926,0.1925,0.1925,0.1925,0,0.2085,0.2073,0.2058,0.2043,0.2036,0.2011,0.2011,0.2014,0.2016,0.2013,0.2012,0.2004,0.199,0.1997,0.1978,0.2011,0.1993,0.1989,0.1966,0.2004,0.2009,0.2016,0.1928,0.1927,0.1927,0.1926,0,0,0.2009,0.2016,0.2007,0.2,0.2002,0.1986,0.1984,0.1978,0.1979,0.1986,0.1989,0.1993,0.2017,0.2005,0.2006,0.2039,0.209,0.2031,0.2032,0.2033,0.2135,0.2015,0.2011,0.2087,0.2089,0.209,0.2117,0,0.195,0.1912,0.1931,0.1894,0.1875,0.1908,0.1905,0.1916,0.1936,0.1951,0.1987,0.199,0.2009,0.2013,0.2054,0.208,0.211,0.2082,0.2103,0.2104,0.1989,0.2016,0.1888,0.1892,0.2124,0.2125,0.2126,0,0.1871,0.1867,0.1824,0.1836,0.1829,0.1817,0.1836,0.1837,0.1883,0.1901,0.1941,0.197,0.2025,0.2042,0.2116,0.2091,0.2121,0.2148,0.2149,0.2035,0.1997,0.1895,0.1895,0.1848,0.2136,0.2135,0.2134,0,0.1803,0.1786,0.1758,0.1757,0.1772,0.1765,0.1778,0.1815,0.1826,0.1881,0.1903,0.1965,0.1996,0.206,0.2121,0.212,0.2198,0.2199,0.2119,0.211,0.2005,0.1983,0.1957,0.2261,0.2261,0.2261,0.2261,0,0.1729,0.1701,0.1726,0.1708,0.1686,0.1716,0.1706,0.1736,0.1783,0.1802,0.1877,0.1906,0.2006,0.2059,0.2118,0.2127,0.2194,0.2127,0.2113,0.2007,0.1986,0.1941,0.1926,0.2262,0.2261,0.2261,0.2261,0,0.1645,0.166,0.163,0.1646,0.165,0.1633,0.166,0.1665,0.1719,0.1753,0.1774,0.1865,0.1926,0.2005,0.21,0.2095,0.2053,0.2124,0.1977,0.1943,0.1787,0.1777,0.1645,0.1613,0.203,0.2027,0.2025,0,0.1592,0.1573,0.1581,0.1573,0.1574,0.1568,0.157,0.1622,0.1638,0.1724,0.1737,0.1807,0.1843,0.1912,0.1929,0.1969,0.1955,0.1852,0.1829,0.1756,0.1738,0.1667,0.1648,0.1708,0.1703,0.1699,0.1696,0,0.1508,0.1517,0.1509,0.1497,0.149,0.1486,0.1499,0.1507,0.1577,0.161,0.166,0.1695,0.1737,0.1706,0.1726,0.1742,0.1711,0.1768,0.1749,0.152,0.139,0.1358,0.1709,0.1662,0.1665,0.1668,0.167,0.1671,0.1454,0.1434,0.1438,0.1416,0.1414,0.1409,0.1395,0.1425,0.1444,0.1485,0.1556,0.1558,0.1534,0.1534,0.1535,0.1415,0.1466,0.1359,0.1368,0.1315,0.1227,0.1477,0.1371,0.1373,0.1374,0.1375,0.1376,0,0.1388,0.1379,0.1361,0.1341,0.1317,0.1339,0.1349,0.1336,0.1341,0.1367,0.1393,0.1331,0.1261,0.1243,0.1131,0.1047,0.1021,0.1005,0.0919,0.0938,0.1211,0.1141,0.091,0.091,0.091,0.0911,0.0911,0.0911,0.1357,0.1321,0.1309,0.1253,0.1241,0.1206,0.1205,0.1199,0.1203,0.1154,0.1099,0.11,0.1055,0.0912,0.0795,0.0776,0.0745,0.0618,0.0704,0.0934,0.097,0.1004,0.0936,0.0666,0.0666,0.037,0.0368,0.0366]},{"header":{"parameterUnit":"m.s-1","parameterCategory":2,"la1":30.2991,"la2":30.254,"lo1":-89.0895,"lo2":-89.0444,"dy":0.0017,"dx":0.0017,"nx":28,"ny":28,"refTime":"2024-03-29T21:00:00:Z","depth":"0","parameterNumber":3,"parameterNumberName":"V-component_of_CURRENTS"},"data":[0,0,0,0,0,0,0,0,0,0,0,0,0,0,0,0,0,0,0,0,0,0,0,0,0,0,0,0,0,0,0,0,0,0,0,0,0,0,0,0,0,0,0,0,0,0,0,0,0,0,0,0,0,0,0,0,0,0,0.0385,0.0385,0,0.0392,0.0393,0.0393,0.0403,0.0403,0.0403,0.0403,0.0372,0.0372,0.0371,0,0,0,0,0,0,0,0,0,0,0,0,0,0.0345,0.0346,0.0385,0.0385,0.0385,0.0392,0.0393,0.0393,0.0403,0.0403,0.0403,0.0403,0.0373,0.0372,0.0371,0,0,0,0,0,0,0,0,0,0,0,0,0,0.036,0.0346,0.0385,0.039,0.039,0.0392,0.0393,0.0393,0.0403,0.0403,0.0403,0.0403,0.0373,0.0372,0.0371,0.0363,0,0,0.0367,0.0366,0,0,0,0,0,0,0,0,0.036,0.0362,0.0389,0.0389,0.039,0.0395,0.0367,0.0381,0.0403,0.0401,0.0403,0.0403,0.0375,0.0374,0.0379,0.0362,0.0361,0.0367,0.0366,0.0366,0.0365,0,0,0,0,0,0,0,0.0359,0.0362,0.039,0.0389,0.0389,0.0379,0.0382,0.037,0.0389,0.0401,0.0401,0.0398,0.0375,0.038,0.0378,0.036,0.0367,0.0366,0.0365,0.0365,0.0361,0.0361,0,0,0,0,0,0,0.0356,0.0361,0.039,0.039,0.0372,0.0379,0.0383,0.0395,0.039,0.0389,0.0398,0.0399,0.0382,0.0379,0.0377,0.0386,0.0366,0.0364,0.0364,0.036,0.0361,0.0362,0,0,0,0,0,0,0.0355,0.0359,0.039,0.0373,0.0376,0.038,0.0394,0.0395,0.0402,0.0388,0.0387,0.0404,0.0382,0.0378,0.037,0.0384,0.0364,0.0363,0.0359,0.036,0.0361,0.0393,0,0,0,0,0,0,0.0354,0.0359,0.0366,0.0373,0.0377,0.0397,0.0394,0.0395,0.0399,0.04,0.0392,0.0389,0.0382,0.0372,0.0369,0.0382,0.0362,0.0359,0.036,0.0361,0.0391,0.0395,0.0398,0,0,0,0,0,0.0353,0.0365,0.0367,0.037,0.0388,0.0397,0.0398,0.0401,0.0399,0.0406,0.0398,0.0389,0.0378,0.0371,0.0367,0.0381,0.0358,0.0359,0.0361,0.039,0.0394,0.0398,0,0,0,0,0,0,0.0349,0.0368,0.0369,0.0386,0.0392,0.0398,0.0402,0.0402,0.0403,0.0402,0.039,0.0387,0.0388,0.0378,0.0371,0.0385,0.0369,0.037,0.0393,0.0397,0.04,0.0423,0.0361,0,0,0,0,0,0.0351,0.0369,0.0378,0.039,0.0394,0.0398,0.0401,0.0403,0.0403,0.0404,0.04,0.0394,0.0392,0.0388,0.0384,0.0384,0.0382,0.0393,0.0396,0.0399,0.0416,0.043,0.0437,0.0366,0.0366,0.0366,0,0,0.0351,0.0364,0.0372,0.039,0.0395,0.0409,0.0401,0.0408,0.042,0.0399,0.0412,0.0404,0.0394,0.0401,0.0401,0.0392,0.0414,0.0401,0.0404,0.0419,0.0432,0.0439,0.0445,0.0367,0.0367,0.0367,0,0,0.0359,0.0373,0.0389,0.0398,0.0407,0.0414,0.0417,0.0426,0.0432,0.0437,0.043,0.0435,0.0423,0.0431,0.0429,0.0449,0.0433,0.0441,0.0476,0.0489,0.0495,0.0501,0.049,0.0495,0.0443,0.0443,0.0443,0,0.0355,0.0383,0.0392,0.0408,0.0419,0.0419,0.0436,0.0443,0.0448,0.0459,0.0445,0.0459,0.0445,0.0467,0.0473,0.0459,0.0452,0.0459,0.0495,0.05,0.0505,0.0493,0.0498,0.0444,0.0444,0.0444,0.0444,0,0.0377,0.0396,0.0406,0.0434,0.0446,0.046,0.0471,0.0485,0.0488,0.0496,0.0517,0.0507,0.0521,0.0514,0.0496,0.0528,0.0505,0.0497,0.0485,0.0514,0.0499,0.0503,0.0447,0.0446,0.0446,0.0445,0,0,0.0381,0.0415,0.042,0.0439,0.0462,0.0478,0.0501,0.0529,0.0556,0.0557,0.0595,0.0589,0.0591,0.059,0.0576,0.0583,0.0599,0.0554,0.0554,0.0545,0.061,0.0577,0.0577,0.0592,0.0594,0.0595,0.0578,0,0.0396,0.0433,0.0448,0.0485,0.0507,0.0522,0.055,0.0574,0.059,0.0625,0.0627,0.0651,0.0617,0.0626,0.0631,0.0612,0.0614,0.0603,0.0582,0.0581,0.055,0.0583,0.0599,0.0585,0.0582,0.0582,0.0583,0,0.0416,0.0443,0.0479,0.0525,0.0538,0.056,0.0616,0.064,0.0682,0.0696,0.0722,0.0722,0.074,0.0707,0.0699,0.069,0.0657,0.0636,0.0635,0.0602,0.0557,0.0559,0.0592,0.0589,0.0589,0.0588,0.0588,0,0.0424,0.0466,0.05,0.0514,0.0564,0.0588,0.0618,0.0663,0.07,0.0746,0.078,0.0793,0.0808,0.0783,0.0731,0.0718,0.0713,0.069,0.063,0.0626,0.0637,0.0632,0.0671,0.0693,0.0693,0.0693,0.0693,0,0.0441,0.0469,0.0508,0.0529,0.0581,0.0607,0.0668,0.0699,0.0758,0.0817,0.082,0.0865,0.0828,0.0817,0.0761,0.0707,0.0737,0.065,0.0631,0.0645,0.0641,0.0635,0.0629,0.0692,0.0692,0.0692,0.0693,0,0.0446,0.0468,0.0512,0.0566,0.0586,0.0624,0.0699,0.0748,0.0795,0.0874,0.0894,0.0923,0.0907,0.0855,0.081,0.0747,0.0695,0.0667,0.0671,0.0654,0.0589,0.0584,0.0595,0.061,0.0608,0.0607,0.0606,0,0.0454,0.0476,0.0536,0.0567,0.0592,0.0651,0.0699,0.076,0.0818,0.0912,0.0957,0.0966,0.0983,0.0896,0.0798,0.0702,0.0683,0.0637,0.0623,0.0604,0.0584,0.0576,0.0589,0.064,0.064,0.064,0.064,0,0.0475,0.0491,0.0529,0.0585,0.0635,0.07,0.0772,0.0825,0.0909,0.0983,0.1063,0.1082,0.1007,0.093,0.0788,0.0715,0.0652,0.0627,0.0626,0.0636,0.0615,0.0615,0.0612,0.0637,0.0638,0.0638,0.0638,0.0638,0.0492,0.0515,0.0557,0.0608,0.0666,0.074,0.0799,0.0889,0.0989,0.1102,0.1118,0.1154,0.1049,0.0869,0.0776,0.063,0.0636,0.0588,0.0587,0.0583,0.0599,0.0575,0.0565,0.0565,0.0565,0.0565,0.0565,0,0.0505,0.0529,0.0579,0.0642,0.0697,0.0732,0.0845,0.0918,0.1037,0.1126,0.1194,0.116,0.1039,0.0895,0.071,0.0622,0.06,0.0574,0.0593,0.0611,0.0612,0.0615,0.0594,0.0594,0.0594,0.0594,0.0594,0.0594,0.0517,0.0548,0.0565,0.0646,0.0696,0.0787,0.0851,0.097,0.1059,0.117,0.1196,0.12,0.1126,0.084,0.0679,0.0631,0.062,0.0574,0.0578,0.0595,0.0597,0.0599,0.0602,0.0579,0.0579,0.0601,0.0602,0.0602]}],[{"header":{"parameterUnit":"m.s-1","parameterCategory":2,"la1":30.2991,"la2":30.254,"lo1":-89.0895,"lo2":-89.0444,"dy":0.0017,"dx":0.0017,"nx":28,"ny":28,"refTime":"2024-03-29T21:00:00:Z","depth":"2","parameterNumber":2,"parameterNumberName":"U-component_of_CURRENTS"},"data":[0,0,0,0,0,0,0,0,0,0,0,0,0,0,0,0,0,0,0,0,0,0,0,0,0,0,0,0,0,0,0,0,0,0,0,0,0,0,0,0,0,0,0,0,0,0,0,0,0,0,0,0,0,0,0,0,0,0,0.163,0.163,0,0.1625,0.1624,0.1624,0.1632,0.1633,0.1634,0.1634,0.1613,0.1612,0.1611,0,0,0,0,0,0,0,0,0,0,0,0,0,0.1645,0.1645,0.163,0.163,0.163,0.1625,0.1624,0.1624,0.1632,0.1633,0.1634,0.1634,0.1613,0.1612,0.1611,0,0,0,0,0,0,0,0,0,0,0,0,0,0.1637,0.1645,0.163,0.1636,0.1636,0.1625,0.1624,0.1624,0.1632,0.1633,0.1634,0.1635,0.1614,0.1612,0.161,0.1585,0,0,0.1606,0.1605,0,0,0,0,0,0,0,0,0.1637,0.1636,0.1635,0.1635,0.1636,0.1632,0.1622,0.1611,0.1632,0.1631,0.1634,0.1635,0.1619,0.1617,0.1611,0.1584,0.1583,0.1605,0.1604,0.1604,0.1603,0,0,0,0,0,0,0,0.1638,0.1636,0.1625,0.1635,0.1636,0.1638,0.1637,0.162,0.1618,0.1631,0.1632,0.1636,0.1619,0.1612,0.161,0.1582,0.1606,0.1604,0.1603,0.1602,0.16,0.1601,0,0,0,0,0,0,0.1643,0.1637,0.1625,0.1625,0.1642,0.1637,0.1636,0.1631,0.1619,0.1619,0.1635,0.1636,0.1615,0.1612,0.161,0.1628,0.1604,0.1602,0.1601,0.1599,0.16,0.1601,0,0,0,0,0,0,0.1643,0.1641,0.1626,0.1634,0.1632,0.1637,0.163,0.163,0.1637,0.1622,0.1622,0.1643,0.1615,0.1612,0.1612,0.1625,0.1602,0.16,0.1598,0.16,0.1601,0.1632,0,0,0,0,0,0,0.1643,0.1641,0.1639,0.1633,0.1632,0.1631,0.1629,0.1629,0.1638,0.164,0.1629,0.1627,0.1615,0.1615,0.161,0.1623,0.1599,0.1597,0.1599,0.16,0.163,0.1634,0.1638,0,0,0,0,0,0.1644,0.1636,0.1638,0.1637,0.1628,0.1632,0.1631,0.1635,0.1638,0.1643,0.164,0.1628,0.1623,0.1614,0.1609,0.1621,0.1596,0.1598,0.16,0.1628,0.1634,0.1638,0,0,0,0,0,0,0.1642,0.1636,0.1639,0.163,0.1638,0.1634,0.1639,0.164,0.164,0.1646,0.1631,0.1628,0.164,0.1624,0.1615,0.1628,0.1611,0.1612,0.1634,0.1638,0.1642,0.1653,0.1598,0,0,0,0,0,0.164,0.1635,0.1636,0.1633,0.1638,0.164,0.1642,0.1648,0.1648,0.1649,0.1645,0.1641,0.164,0.1636,0.1634,0.1628,0.1631,0.1637,0.1641,0.1644,0.1652,0.1675,0.1682,0.1608,0.1608,0.1608,0,0,0.1635,0.1637,0.1631,0.1633,0.1639,0.1641,0.1644,0.1655,0.166,0.1645,0.1654,0.1657,0.1645,0.1651,0.1654,0.1639,0.1666,0.1647,0.165,0.1655,0.1678,0.1685,0.1692,0.1609,0.1609,0.1609,0,0,0.1627,0.1632,0.1623,0.1631,0.1646,0.1651,0.1658,0.1665,0.1675,0.168,0.1681,0.1698,0.168,0.1687,0.1683,0.1707,0.1694,0.1703,0.1721,0.1744,0.175,0.1756,0.1765,0.1771,0.1697,0.1697,0.1697,0,0.1622,0.1613,0.1624,0.1625,0.1631,0.1657,0.1655,0.1667,0.1676,0.1683,0.169,0.1702,0.1701,0.171,0.1726,0.1717,0.172,0.1701,0.175,0.1755,0.176,0.1768,0.1774,0.1698,0.1698,0.1698,0.1698,0,0.1604,0.1605,0.1607,0.1614,0.1624,0.1633,0.1653,0.167,0.1688,0.1698,0.1726,0.1738,0.1745,0.1752,0.1744,0.1779,0.1766,0.1758,0.1736,0.177,0.1775,0.1781,0.1701,0.17,0.17,0.1699,0,0,0.1563,0.1587,0.1586,0.1591,0.162,0.1623,0.1646,0.1665,0.168,0.171,0.1727,0.1756,0.1777,0.1776,0.1783,0.1807,0.1852,0.1799,0.1799,0.1805,0.1892,0.1793,0.179,0.1849,0.1851,0.1852,0.1879,0,0.1544,0.1543,0.1561,0.1564,0.1566,0.1601,0.1618,0.1644,0.1675,0.1704,0.1742,0.1765,0.178,0.1793,0.1825,0.1847,0.187,0.1845,0.186,0.1861,0.1768,0.1795,0.1633,0.1635,0.1885,0.1886,0.1887,0,0.1509,0.1518,0.1516,0.1542,0.1546,0.1555,0.1591,0.1611,0.1663,0.1688,0.1732,0.1763,0.1815,0.1824,0.1887,0.1867,0.1888,0.1905,0.1906,0.1808,0.1773,0.1644,0.1637,0.1897,0.1896,0.1895,0.1895,0,0.1466,0.1481,0.1482,0.1489,0.1524,0.1532,0.1556,0.1603,0.1623,0.1687,0.1709,0.1773,0.1806,0.1854,0.19,0.1896,0.1959,0.1954,0.1884,0.1877,0.1739,0.1716,0.2002,0.2002,0.2002,0.2002,0.2002,0,0.1429,0.1427,0.1462,0.1461,0.1464,0.1503,0.1519,0.1553,0.1606,0.163,0.1702,0.1731,0.1817,0.1861,0.1903,0.1905,0.1962,0.1893,0.188,0.1743,0.1722,0.1948,0.1941,0.2003,0.2003,0.2002,0.2002,0,0.1376,0.14,0.14,0.1434,0.1442,0.1445,0.1487,0.1502,0.1562,0.1598,0.162,0.1703,0.1756,0.1823,0.1896,0.1887,0.1914,0.19,0.1725,0.169,0.1817,0.1812,0.1825,0.1821,0.1819,0.1816,0.1814,0,0.1347,0.1342,0.1368,0.1369,0.1383,0.1399,0.141,0.1469,0.149,0.1573,0.1584,0.1652,0.1681,0.1738,0.1741,0.1769,0.1851,0.1621,0.1585,0.1814,0.1801,0.18,0.1798,0.142,0.1415,0.1411,0.1408,0,0.1295,0.1308,0.1313,0.1314,0.1321,0.1327,0.1352,0.1361,0.1435,0.146,0.1502,0.1533,0.1574,0.1516,0.1536,0.1535,0.1601,0.1535,0.1831,0.1479,0.1432,0.1419,0.1431,0.1372,0.1375,0.1378,0.138,0.1382,0.1257,0.1248,0.1259,0.1252,0.1259,0.1257,0.1249,0.1277,0.129,0.1321,0.1386,0.1376,0.1389,0.1328,0.1292,0.1256,0.1378,0.1319,0.1333,0.1351,0.1288,0.1236,0.1128,0.1131,0.1132,0.1134,0.1136,0,0.1203,0.1203,0.1196,0.1189,0.117,0.1199,0.1207,0.1186,0.1174,0.1201,0.1214,0.1103,0.1044,0.107,0.095,0.0936,0.0946,0.0898,0.0904,0.0939,0.0971,0.089,0.0625,0.0624,0.0623,0.0622,0,0,0.1179,0.1155,0.1147,0.1102,0.1099,0.1069,0.1066,0.1036,0.1034,0.0986,0.0955,0.1022,0.1037,0.0838,0.0791,0.0689,0.0819,0.0655,0.106,0.1103,0.1133,0.1201,0.1114,0,0,0,0,0]},{"header":{"parameterUnit":"m.s-1","parameterCategory":2,"la1":30.2991,"la2":30.254,"lo1":-89.0895,"lo2":-89.0444,"dy":0.0017,"dx":0.0017,"nx":28,"ny":28,"refTime":"2024-03-29T21:00:00:Z","depth":"2","parameterNumber":3,"parameterNumberName":"V-component_of_CURRENTS"},"data":[0,0,0,0,0,0,0,0,0,0,0,0,0,0,0,0,0,0,0,0,0,0,0,0,0,0,0,0,0,0,0,0,0,0,0,0,0,0,0,0,0,0,0,0,0,0,0,0,0,0,0,0,0,0,0,0,0,0,0.0022,0.0023,0,0.0024,0.0024,0.0024,0.0024,0.0024,0.0024,0.0024,0.0025,0.0025,0.0025,0,0,0,0,0,0,0,0,0,0,0,0,0,-0.0011,-0.0011,0.0022,0.0023,0.0023,0.0024,0.0024,0.0024,0.0024,0.0024,0.0024,0.0024,0.0025,0.0025,0.0025,0,0,0,0,0,0,0,0,0,0,0,0,0,-0.0003,-0.001,0.0022,0.0024,0.0024,0.0024,0.0024,0.0024,0.0024,0.0024,0.0024,0.0024,0.0025,0.0025,0.0025,0.002,0,0,0.0024,0.0024,0,0,0,0,0,0,0,0,-0.0004,-0.0002,0.0024,0.0024,0.0024,0.0025,0.0012,0.0023,0.0024,0.0022,0.0024,0.0024,0.0026,0.0026,0.0023,0.002,0.002,0.0024,0.0024,0.0024,0.0024,0,0,0,0,0,0,0,-0.0004,-0.0003,0.0021,0.0024,0.0024,0.0015,0.0016,0.0014,0.0021,0.0022,0.0023,0.0026,0.0026,0.0023,0.0023,0.002,0.0024,0.0024,0.0024,0.0024,0.0033,0.0033,0,0,0,0,0,0,0.0001,-0.0003,0.0021,0.0021,0.0012,0.0015,0.0017,0.0023,0.0021,0.0022,0.0025,0.0026,0.0023,0.0023,0.0023,0.0042,0.0024,0.0024,0.0024,0.0032,0.0033,0.0033,0,0,0,0,0,0,-0.0,0.0003,0.0021,0.001,0.0012,0.0016,0.0023,0.0023,0.0025,0.0024,0.0024,0.0028,0.0024,0.0023,0.0029,0.0041,0.0024,0.0024,0.0032,0.0032,0.0033,0.0064,0,0,0,0,0,0,-0.0001,0.0003,0.0002,0.0011,0.0013,0.0025,0.0023,0.0023,0.0027,0.0027,0.0026,0.0026,0.0024,0.0029,0.0029,0.0041,0.0024,0.0031,0.0032,0.0033,0.0062,0.0065,0.0068,0,0,0,0,0,-0.0002,0.0003,0.0002,0.0005,0.0015,0.0025,0.0025,0.0027,0.0027,0.0029,0.0031,0.0027,0.0033,0.003,0.0029,0.0041,0.0031,0.0032,0.0033,0.0061,0.0065,0.0068,0,0,0,0,0,0,-0.0009,0.0004,0.0003,0.0012,0.0019,0.0026,0.0031,0.0029,0.0031,0.0035,0.003,0.003,0.0041,0.0034,0.003,0.0045,0.0031,0.0032,0.0053,0.0057,0.0059,0.0075,0.0023,0,0,0,0,0,-0.0012,-0.0005,0.0005,0.0013,0.002,0.0024,0.0026,0.003,0.0036,0.0037,0.0038,0.0039,0.0042,0.0044,0.0045,0.0051,0.0049,0.0058,0.0061,0.0063,0.0075,0.008,0.0085,0.0035,0.0035,0.0035,0,0,-0.0012,-0.0004,-0.0,0.0011,0.002,0.0033,0.0026,0.0039,0.0051,0.0037,0.0053,0.0049,0.0046,0.0056,0.006,0.0053,0.0074,0.0064,0.0066,0.0077,0.0081,0.0086,0.0091,0.0036,0.0036,0.0036,0,0,0.0,0.0002,0.0015,0.0022,0.0037,0.0041,0.0046,0.0058,0.0063,0.0074,0.0071,0.0077,0.0077,0.0082,0.0083,0.01,0.0089,0.0095,0.0121,0.0126,0.013,0.0134,0.0131,0.0134,0.0095,0.0095,0.0095,0,-0.0001,0.002,0.002,0.0037,0.0048,0.0048,0.0069,0.0072,0.0082,0.0093,0.0085,0.01,0.0093,0.0114,0.0117,0.0108,0.0104,0.0109,0.0131,0.0134,0.0138,0.0134,0.0137,0.0097,0.0096,0.0096,0.0096,0,0.0026,0.004,0.0052,0.0074,0.0081,0.0101,0.011,0.0119,0.0124,0.0129,0.0151,0.0145,0.0157,0.015,0.0138,0.016,0.0146,0.0134,0.0124,0.0145,0.0139,0.0142,0.0099,0.0098,0.0098,0.0097,0,0,0.0037,0.0065,0.0071,0.0087,0.0106,0.0118,0.0139,0.0161,0.0184,0.0184,0.0216,0.0214,0.0213,0.0214,0.0202,0.0202,0.0213,0.0178,0.0177,0.0178,0.0218,0.0204,0.0206,0.0203,0.0204,0.0204,0.0202,0,0.0063,0.01,0.0108,0.0144,0.0166,0.0171,0.0193,0.0207,0.022,0.0246,0.0245,0.0269,0.0237,0.0249,0.0244,0.0226,0.0223,0.0215,0.0195,0.0195,0.0183,0.021,0.021,0.0208,0.0205,0.0205,0.0205,0,0.0091,0.0113,0.0153,0.0187,0.0199,0.0218,0.0258,0.0278,0.0305,0.0317,0.0335,0.0334,0.0343,0.0312,0.0296,0.029,0.026,0.0239,0.0238,0.022,0.0187,0.0188,0.0213,0.021,0.021,0.0209,0.0209,0,0.0105,0.0146,0.018,0.0191,0.0227,0.025,0.0273,0.0302,0.0334,0.037,0.0398,0.04,0.0415,0.0381,0.0332,0.0317,0.0307,0.0282,0.0242,0.024,0.0235,0.0232,0.0275,0.0275,0.0275,0.0275,0.0275,0,0.0131,0.0159,0.019,0.0209,0.0256,0.0274,0.0329,0.0351,0.0397,0.0446,0.0441,0.0478,0.0433,0.0418,0.036,0.0314,0.0331,0.0259,0.0246,0.0244,0.0242,0.024,0.0236,0.0275,0.0275,0.0275,0.0275,0,0.0145,0.0165,0.0206,0.0248,0.0265,0.03,0.0364,0.0405,0.0444,0.0511,0.0528,0.0544,0.0529,0.0471,0.0421,0.036,0.031,0.0286,0.0283,0.027,0.023,0.0228,0.025,0.0249,0.0249,0.0249,0.0249,0,0.0158,0.0178,0.0228,0.0256,0.0281,0.0334,0.0375,0.0425,0.0474,0.0552,0.0588,0.0599,0.061,0.0528,0.0435,0.0346,0.032,0.0272,0.0247,0.0247,0.0231,0.0229,0.0227,0.0248,0.0247,0.0247,0.0247,0,0.0178,0.0194,0.0225,0.0278,0.0326,0.0381,0.0445,0.049,0.0561,0.0619,0.0687,0.0703,0.0643,0.0561,0.0437,0.0366,0.0286,0.0265,0.0281,0.0252,0.0244,0.0229,0.0227,0.0246,0.0246,0.0246,0.0246,0.0246,0.0191,0.0213,0.0251,0.0303,0.0358,0.0425,0.0476,0.0548,0.0631,0.0723,0.074,0.0764,0.0673,0.0521,0.041,0.0287,0.0296,0.0232,0.0233,0.0234,0.0232,0.0224,0.0221,0.0221,0.0221,0.0221,0.0221,0,0.0202,0.0229,0.0273,0.0336,0.0391,0.0425,0.0521,0.0573,0.067,0.075,0.0806,0.0713,0.0633,0.052,0.0351,0.0247,0.0232,0.0195,0.0202,0.0205,0.0206,0.0203,0.0185,0.0184,0.0184,0.0183,0,0,0.0211,0.0244,0.0264,0.0346,0.0398,0.048,0.0538,0.0619,0.0691,0.0758,0.0781,0.0802,0.0674,0.0536,0.0398,0.0297,0.027,0.0265,0.0306,0.0334,0.0337,0.0239,0.0238,0,0,0,0,0]}],[{"header":{"parameterUnit":"m.s-1","parameterCategory":2,"la1":30.2991,"la2":30.254,"lo1":-89.0895,"lo2":-89.0444,"dy":0.0017,"dx":0.0017,"nx":28,"ny":28,"refTime":"2024-03-29T21:00:00:Z","depth":"4","parameterNumber":2,"parameterNumberName":"U-component_of_CURRENTS"},"data":[0,0,0,0,0,0,0,0,0,0,0,0,0,0,0,0,0,0,0,0,0,0,0,0,0,0,0,0,0,0,0,0,0,0,0,0,0,0,0,0,0,0,0,0,0,0,0,0,0,0,0,0,0,0,0,0,0,0,0.0781,0.0782,0,0.0824,0.0824,0.0824,0.085,0.085,0.0851,0.0852,0.0935,0.0937,0.0939,0,0,0,0,0,0,0,0,0,0,0,0,0,0.0729,0.0729,0.0781,0.0782,0.0783,0.0824,0.0824,0.0824,0.0849,0.085,0.0851,0.0852,0.0935,0.0937,0.0939,0,0,0,0,0,0,0,0,0,0,0,0,0,0.0754,0.0729,0.0781,0.0805,0.0808,0.0824,0.0824,0.0824,0.0849,0.085,0.0851,0.0852,0.0934,0.0937,0.0939,0.0934,0,0,0.0946,0.0947,0,0,0,0,0,0,0,0,0.0753,0.0755,0.0801,0.0804,0.0807,0.0838,0.0837,0.0865,0.0849,0.0827,0.0852,0.0853,0.091,0.0914,0.0911,0.0938,0.0942,0.0947,0.0948,0.0949,0.095,0,0,0,0,0,0,0,0.0751,0.0754,0.0792,0.0802,0.0806,0.0817,0.0821,0.0842,0.0859,0.0829,0.0833,0.0847,0.0911,0.0908,0.0913,0.0943,0.0947,0.0949,0.095,0.0951,0.1035,0.1036,0,0,0,0,0,0,0.0756,0.0752,0.0791,0.0794,0.0789,0.0818,0.0822,0.0822,0.0858,0.0865,0.0846,0.0848,0.0904,0.0911,0.0917,0.0977,0.0949,0.0951,0.0953,0.1034,0.1035,0.1036,0,0,0,0,0,0,0.0754,0.0758,0.0789,0.078,0.0785,0.0818,0.0818,0.0823,0.0843,0.0871,0.0878,0.0865,0.0905,0.0913,0.096,0.0978,0.0952,0.0955,0.1033,0.1034,0.1035,0.1056,0,0,0,0,0,0,0.0752,0.0757,0.0764,0.0779,0.0786,0.0811,0.0818,0.0823,0.0851,0.0855,0.0889,0.0897,0.0906,0.0956,0.0962,0.0981,0.0957,0.1032,0.1034,0.1035,0.1055,0.1058,0.1061,0,0,0,0,0,0.075,0.0754,0.0764,0.0769,0.0792,0.0812,0.0815,0.0838,0.0852,0.0859,0.0892,0.0897,0.0969,0.0959,0.0966,0.0986,0.1032,0.1033,0.1035,0.1053,0.1057,0.1061,0,0,0,0,0,0,0.074,0.0758,0.0769,0.078,0.0802,0.0819,0.0838,0.0849,0.0877,0.0893,0.0911,0.092,0.0967,0.0973,0.0961,0.1013,0.0999,0.1003,0.1011,0.1015,0.1018,0.1016,0.0959,0,0,0,0,0,0.074,0.0747,0.0769,0.0782,0.0797,0.082,0.0834,0.0851,0.0878,0.0891,0.0914,0.0944,0.0974,0.0993,0.1017,0.1047,0.1051,0.1063,0.1066,0.1068,0.1071,0.1097,0.1102,0.1041,0.1041,0.1041,0,0,0.0742,0.0754,0.076,0.0781,0.0803,0.0818,0.083,0.0863,0.0879,0.0897,0.0934,0.0961,0.0985,0.1021,0.1041,0.1032,0.1087,0.107,0.1073,0.1074,0.1099,0.1105,0.111,0.1043,0.1042,0.1042,0,0,0.0748,0.0762,0.0771,0.0788,0.0826,0.0836,0.085,0.0878,0.0899,0.0934,0.0955,0.0995,0.1032,0.1053,0.1068,0.1102,0.1105,0.1111,0.1124,0.1149,0.1155,0.1159,0.1167,0.1172,0.1109,0.1109,0.1109,0,0.0753,0.0762,0.078,0.0795,0.0813,0.0845,0.0861,0.0881,0.092,0.0943,0.0953,0.1021,0.1044,0.1089,0.1102,0.111,0.112,0.1108,0.1153,0.1158,0.1162,0.117,0.1175,0.111,0.111,0.111,0.111,0,0.0762,0.0777,0.0789,0.0811,0.0828,0.0853,0.0883,0.091,0.0939,0.096,0.102,0.1053,0.1094,0.1106,0.1118,0.1162,0.1157,0.1157,0.1143,0.117,0.1176,0.1181,0.1112,0.1112,0.1111,0.1111,0,0,0.0754,0.0787,0.0793,0.0804,0.0841,0.0853,0.089,0.0926,0.0957,0.0999,0.1038,0.1092,0.1121,0.114,0.1162,0.1183,0.1223,0.1186,0.1187,0.1191,0.1272,0.1171,0.1167,0.1234,0.1235,0.1236,0.1261,0,0.076,0.078,0.0798,0.082,0.0833,0.0869,0.0894,0.0933,0.0975,0.1019,0.1069,0.1119,0.113,0.1163,0.1188,0.1221,0.1239,0.1215,0.1247,0.1247,0.1153,0.117,0.124,0.1265,0.1266,0.1267,0.1268,0,0.076,0.0772,0.0794,0.0821,0.0833,0.0854,0.0904,0.0933,0.1002,0.104,0.1099,0.114,0.1198,0.1198,0.1261,0.1248,0.1263,0.1276,0.1278,0.1179,0.1156,0.1234,0.1277,0.1276,0.1276,0.1275,0.1274,0,0.0732,0.0766,0.0781,0.0793,0.0831,0.0858,0.0886,0.0947,0.0982,0.1065,0.1102,0.1171,0.1218,0.1252,0.1289,0.1284,0.134,0.1334,0.1253,0.1246,0.1321,0.1315,0.1368,0.1368,0.1368,0.1368,0.1368,0,0.0715,0.0728,0.0776,0.0781,0.081,0.0846,0.0892,0.0934,0.1002,0.1044,0.1119,0.116,0.1237,0.1279,0.1299,0.1288,0.1351,0.1254,0.1246,0.1327,0.1323,0.1324,0.1318,0.1369,0.1369,0.1369,0.1368,0,0.0677,0.0709,0.0728,0.0777,0.0797,0.082,0.0888,0.0918,0.0992,0.105,0.108,0.1168,0.1219,0.1271,0.1326,0.129,0.1296,0.1276,0.1355,0.1351,0.118,0.1176,0.118,0.1177,0.1174,0.1172,0.117,0,0.0653,0.0663,0.0718,0.0737,0.0766,0.081,0.084,0.0909,0.0941,0.1042,0.106,0.1141,0.1191,0.1185,0.1242,0.1256,0.1245,0.123,0.1204,0.117,0.1162,0.1162,0.1161,0.1165,0.1165,0.1164,0.1163,0,0.0612,0.0647,0.0667,0.0706,0.0742,0.0768,0.0818,0.0829,0.0909,0.0983,0.1017,0.1045,0.1092,0.1127,0.1145,0.1156,0.1228,0.12,0.1206,0.1181,0.1152,0.1147,0.115,0.1153,0.1155,0.1156,0.1156,0,0.0591,0.06,0.0642,0.0669,0.0708,0.0718,0.0746,0.0778,0.0813,0.0915,0.0924,0.1009,0.1083,0.1075,0.1095,0.1091,0.1073,0.103,0.1044,0.1055,0.1002,0.0945,0.0875,0,0,0,0,0,0.0569,0.0579,0.06,0.0624,0.0655,0.0677,0.0727,0.0756,0.0828,0.0824,0.087,0.0909,0.0935,0.0977,0.0949,0.1036,0.1077,0.0997,0.1035,0.1099,0.111,0.1058,0,0,0,0,0,0,0.0557,0.0582,0.0586,0.0581,0.0585,0.061,0.0638,0.0684,0.0683,0.0762,0.0785,0.0842,0.0887,0.0946,0.0931,0.0941,0.0941,0.1045,0.1041,0.1092,0.1103,0.1112,0.1062,0,0,0,0,0]},{"header":{"parameterUnit":"m.s-1","parameterCategory":2,"la1":30.2991,"la2":30.254,"lo1":-89.0895,"lo2":-89.0444,"dy":0.0017,"dx":0.0017,"nx":28,"ny":28,"refTime":"2024-03-29T21:00:00:Z","depth":"4","parameterNumber":3,"parameterNumberName":"V-component_of_CURRENTS"},"data":[0,0,0,0,0,0,0,0,0,0,0,0,0,0,0,0,0,0,0,0,0,0,0,0,0,0,0,0,0,0,0,0,0,0,0,0,0,0,0,0,0,0,0,0,0,0,0,0,0,0,0,0,0,0,0,0,0,0,-0.0072,-0.0072,0,-0.009,-0.009,-0.009,-0.0099,-0.0099,-0.0098,-0.0098,-0.0109,-0.0109,-0.0109,0,0,0,0,0,0,0,0,0,0,0,0,0,-0.0067,-0.0067,-0.0072,-0.0072,-0.0072,-0.009,-0.009,-0.009,-0.0099,-0.0099,-0.0098,-0.0098,-0.0109,-0.0109,-0.0109,0,0,0,0,0,0,0,0,0,0,0,0,0,-0.0076,-0.0067,-0.0072,-0.0078,-0.0078,-0.009,-0.009,-0.009,-0.0099,-0.0099,-0.0098,-0.0098,-0.0108,-0.0109,-0.011,-0.0116,0,0,-0.0111,-0.0111,0,0,0,0,0,0,0,0,-0.0076,-0.0077,-0.0077,-0.0077,-0.0078,-0.0091,-0.0092,-0.0098,-0.0099,-0.0092,-0.0098,-0.0098,-0.0102,-0.0103,-0.0108,-0.0117,-0.0117,-0.0111,-0.0112,-0.0112,-0.0112,0,0,0,0,0,0,0,-0.0075,-0.0076,-0.008,-0.0077,-0.0078,-0.0087,-0.0088,-0.0094,-0.0098,-0.0093,-0.0093,-0.0093,-0.0102,-0.0107,-0.0108,-0.0117,-0.0111,-0.0112,-0.0112,-0.0112,-0.0123,-0.0123,0,0,0,0,0,0,-0.007,-0.0075,-0.0079,-0.008,-0.0075,-0.0087,-0.0088,-0.0088,-0.0098,-0.0099,-0.0094,-0.0094,-0.0106,-0.0108,-0.0109,-0.0106,-0.0112,-0.0112,-0.0113,-0.0123,-0.0123,-0.0123,0,0,0,0,0,0,-0.007,-0.007,-0.0079,-0.0078,-0.0079,-0.0087,-0.0087,-0.0088,-0.0093,-0.0099,-0.01,-0.0097,-0.0106,-0.0108,-0.0111,-0.0107,-0.0113,-0.0113,-0.0123,-0.0123,-0.0123,-0.0108,0,0,0,0,0,0,-0.0069,-0.007,-0.0071,-0.0077,-0.0079,-0.0083,-0.0087,-0.0089,-0.0093,-0.0094,-0.0102,-0.0103,-0.0106,-0.011,-0.0112,-0.0108,-0.0114,-0.0123,-0.0123,-0.0123,-0.0108,-0.0107,-0.0106,0,0,0,0,0,-0.0069,-0.0069,-0.0071,-0.0071,-0.0079,-0.0083,-0.0085,-0.0091,-0.0094,-0.0096,-0.01,-0.0103,-0.0111,-0.0111,-0.0112,-0.0108,-0.0123,-0.0123,-0.0123,-0.0109,-0.0107,-0.0106,0,0,0,0,0,0,-0.0067,-0.007,-0.0072,-0.0073,-0.0077,-0.0084,-0.0086,-0.0092,-0.0098,-0.0097,-0.0103,-0.0105,-0.0105,-0.0111,-0.0111,-0.0111,-0.0117,-0.0117,-0.0105,-0.0104,-0.0103,-0.0098,-0.0114,0,0,0,0,0,-0.0067,-0.0068,-0.0072,-0.0073,-0.0073,-0.008,-0.0084,-0.0087,-0.0092,-0.0095,-0.0101,-0.0105,-0.0107,-0.0108,-0.0112,-0.0114,-0.0117,-0.0113,-0.0111,-0.011,-0.0107,-0.0108,-0.0107,-0.0122,-0.0122,-0.0122,0,0,-0.0067,-0.0068,-0.0069,-0.0072,-0.0075,-0.0074,-0.0082,-0.0085,-0.0084,-0.0095,-0.0096,-0.0102,-0.0107,-0.0107,-0.0108,-0.011,-0.0107,-0.011,-0.0109,-0.0107,-0.0108,-0.0107,-0.0105,-0.0122,-0.0122,-0.0122,0,0,-0.0062,-0.0066,-0.0063,-0.0065,-0.0067,-0.0071,-0.0071,-0.0078,-0.0081,-0.0084,-0.0089,-0.0092,-0.0099,-0.01,-0.0101,-0.0097,-0.0102,-0.01,-0.0089,-0.009,-0.0089,-0.0087,-0.0087,-0.0086,-0.0098,-0.0098,-0.0098,0,-0.0061,-0.0056,-0.0063,-0.0059,-0.0057,-0.0068,-0.0062,-0.0068,-0.0076,-0.0074,-0.0081,-0.0087,-0.0094,-0.0088,-0.0088,-0.0094,-0.0096,-0.0093,-0.0088,-0.0087,-0.0086,-0.0086,-0.0085,-0.0098,-0.0098,-0.0098,-0.0098,0,-0.0052,-0.0048,-0.0045,-0.0042,-0.0043,-0.0041,-0.0045,-0.0048,-0.0054,-0.0058,-0.0057,-0.0068,-0.0068,-0.0073,-0.0081,-0.0076,-0.008,-0.0087,-0.009,-0.0083,-0.0084,-0.0083,-0.0097,-0.0097,-0.0097,-0.0097,0,0,-0.0046,-0.0039,-0.0038,-0.0031,-0.0033,-0.0032,-0.0028,-0.0027,-0.0021,-0.0033,-0.0023,-0.0036,-0.0041,-0.0043,-0.0052,-0.0058,-0.0057,-0.007,-0.0071,-0.0068,-0.0059,-0.005,-0.0049,-0.0063,-0.0063,-0.0063,-0.0061,0,-0.0034,-0.0021,-0.0021,-0.0008,-0.0001,-0.0006,-0.0001,-0.0003,-0.0005,-0.0,-0.001,-0.0005,-0.0029,-0.0025,-0.0036,-0.0048,-0.0055,-0.0057,-0.0068,-0.0068,-0.0059,-0.0047,-0.0062,-0.0061,-0.0061,-0.006,-0.006,0,-0.0021,-0.0015,0.0002,0.0013,0.0016,0.0022,0.0032,0.0035,0.0038,0.0039,0.0039,0.0032,0.0028,0.0006,-0.0014,-0.0015,-0.0035,-0.0051,-0.0052,-0.0048,-0.0058,-0.007,-0.0059,-0.0059,-0.0059,-0.0059,-0.0059,0,-0.0011,0.0003,0.0017,0.002,0.0029,0.0038,0.0044,0.0048,0.0061,0.007,0.0085,0.007,0.0079,0.0045,0.0013,0.0,-0.0011,-0.0029,-0.0042,-0.0042,-0.0057,-0.0058,-0.0045,-0.0045,-0.0045,-0.0045,-0.0045,0,0.0002,0.0013,0.0024,0.0031,0.0049,0.0052,0.0074,0.0078,0.0098,0.0126,0.0111,0.0134,0.0089,0.0077,0.0031,0.0004,0.0006,-0.0035,-0.0038,-0.0051,-0.0051,-0.0056,-0.0058,-0.0045,-0.0045,-0.0045,-0.0045,0,0.0009,0.0018,0.0033,0.0047,0.0055,0.0067,0.0098,0.0117,0.0134,0.0175,0.0184,0.0189,0.018,0.0132,0.0089,0.0044,0.0006,-0.0006,-0.0007,-0.0011,-0.0032,-0.0032,-0.002,-0.002,-0.002,-0.002,-0.0019,0,0.0012,0.0021,0.0042,0.0057,0.0065,0.0088,0.011,0.0132,0.0161,0.0213,0.0239,0.0248,0.0243,0.0195,0.0132,0.0054,0.0035,0.0008,-0.0025,-0.0023,-0.0028,-0.0029,-0.003,-0.0019,-0.0019,-0.0019,-0.0019,0,0.0015,0.0023,0.0034,0.0066,0.0092,0.0123,0.0159,0.0185,0.0227,0.0244,0.0296,0.0278,0.0274,0.0216,0.0161,0.0098,0.002,0.0011,0.0009,-0.0022,-0.0021,-0.0026,-0.0028,-0.0018,-0.0018,-0.0018,-0.0018,0,0.0015,0.0024,0.0045,0.0076,0.0111,0.0156,0.017,0.0218,0.025,0.0307,0.0326,0.032,0.0315,0.0241,0.0189,0.0132,0.0104,0.0062,0.0057,0.0055,0.0069,0.0081,0.012,0,0,0,0,0,0.0015,0.0032,0.0056,0.0095,0.0132,0.0158,0.0207,0.0224,0.0269,0.031,0.032,0.0318,0.0267,0.0247,0.0193,0.0173,0.0079,0.0104,0.0025,-0.0012,-0.0013,-0.001,0,0,0,0,0,0,0.0018,0.0036,0.0054,0.0111,0.0142,0.0189,0.0224,0.0252,0.0275,0.031,0.0287,0.0289,0.0236,0.0301,0.0189,0.0174,0.0111,0.0084,0.0082,-0.0011,-0.0012,-0.0013,-0.0011,0,0,0,0,0]}]]